15 daagse weersverwachting Tulln (AT)

  • Overzicht
  • Per uur
  • 15 dagen
  • Extra
  • Vergelijk
  • Kaarten
  • Dagkaart
  • Meer »
  • Info
  • Statistieken
  • Directe link
    Temp 6h Neerslag Wind  
 04:56     21:00    Daglengte: 16:04 Vandaag
14:00
30°
 
2
20:00
24°
0.2 mm
2
warningclass
 04:56     21:00    Daglengte: 16:04 Morgen
02:00
20°
0.7 mm
3
08:00
20°
1.9 mm
4
14:00
25°
0.6 mm
3
20:00
23°
0.9 mm
2
 04:56     21:00    Daglengte: 16:04 Zaterdag 22 Jun
02:00
18°
2.9 mm
2
08:00
19°
4.0 mm
2
warningclass
14:00
24°
5.1 mm
3
warningclass
20:00
20°
14.4 mm
2
 04:57     21:00    Daglengte: 16:03 Zondag 23 Jun
02:00
18°
32.4 mm
2
08:00
18°
39.4 mm
3
Locatie info
Region: Lower Austria
Latitude: 48.3283°N
Longitude: 16.0586°E
175 masl
Temp/Neerslag /Baro Onweer/Dauwpunt
    Temp Baro 1h Neerslag Dauwpunt Wind UV Bewolking  
 04:56     21:00    Daglengte: 16:04 Vandaag
12:00
28°
1011.3 hPa   16.5°
2
Windvlaag: -0.3 km/h
15%
13:00
29°
1010.9 hPa   16.3°
2
Windvlaag: -2 km/h
6%
14:00
30°
1010.5 hPa   16.9°
2
Windvlaag: -1.9 km/h
29%
15:00
30°
1010.1 hPa   17.6°
2
Windvlaag: -1.3 km/h
12%
16:00
29°
1010.2 hPa
18%
18.5°
2
Windvlaag: -0.5 km/h
46%
17:00
26°
1010.5 hPa
35%
17.3°
2
Windvlaag: -0.8 km/h
39%
18:00
26°
1010.6 hPa
39%
17.0°
1
Windvlaag: 0.8 km/h
33%
19:00
26°
1011.1 hPa 0.2 mm
64%
16.9°
2
Windvlaag: 2 km/h
42% warningclass
20:00
24°
1011.5 hPa
82%
17.3°
2
Windvlaag: 0.7 km/h
76% warningclass
21:00
23°
1011.9 hPa
74%
18.0°
2
Windvlaag: 0.9 km/h
52%
22:00
22°
1012.4 hPa
36%
18.6°
2
Windvlaag: 1.1 km/h
31%
23:00
21°
1012.8 hPa
77%
18.8°
2
Windvlaag: 1.5 km/h
33%
 04:56     21:00    Daglengte: 16:04 Morgen
00:00
21°
1013.6 hPa 0.7 mm
76%
18.8°
2
Windvlaag: 1.2 km/h
46%
01:00
20°
1013.8 hPa
69%
18.1°
2
Windvlaag: 1.1 km/h
48%
02:00
20°
1013.8 hPa
21%
17.8°
3
Windvlaag: 1.3 km/h
32%
03:00
19°
1014.1 hPa 0.6 mm
79%
17.8°
3
Windvlaag: 1.4 km/h
61%
04:00
19°
1014.3 hPa 0.6 mm
77%
17.7°
3
Windvlaag: 2 km/h
73%
05:00
19°
1014.5 hPa
72%
17.6°
4
Windvlaag: 2.1 km/h
60%
06:00
19°
1014.9 hPa
72%
17.3°
4
Windvlaag: 2.1 km/h
75%
07:00
19°
1015.3 hPa 0.3 mm
71%
16.9°
4
Windvlaag: 2.2 km/h
75%
08:00
20°
1015.6 hPa 0.4 mm
75%
16.6°
4
Windvlaag: 2 km/h
53%
09:00
21°
1015.8 hPa 0.3 mm
78%
16.7°
4
Windvlaag: 1.9 km/h
42%
10:00
21°
1015.8 hPa
80%
16.5°
4
Windvlaag: 1.6 km/h
31%
11:00
22°
1015.9 hPa
39%
16.4°
4
Windvlaag: 1.4 km/h
24%
12:00
24°
1015.8 hPa 0.2 mm
41%
17.1°
4
Windvlaag: 0.6 km/h
26%
13:00
24°
1015.4 hPa
75%
17.3°
4
Windvlaag: 0.4 km/h
59%
14:00
25°
1014.7 hPa
29%
16.7°
3
Windvlaag: 0.3 km/h
60%
15:00
25°
1014.5 hPa
64%
15.8°
3
Windvlaag: -0.5 km/h
75%
16:00
24°
1014.5 hPa 0.3 mm
79%
16.0°
3
Windvlaag: -0.6 km/h
60%
17:00
24°
1014.5 hPa 0.6 mm
82%
14.1°
2
Windvlaag: -0.6 km/h
56%
18:00
24°
1014.5 hPa
43%
14.8°
3
Windvlaag: -0.4 km/h
54%
19:00
24°
1014.7 hPa
72%
14.9°
2
Windvlaag: -1.1 km/h
55%
20:00
23°
1015.2 hPa
64%
16.1°
2
Windvlaag: -1.3 km/h
52%
21:00
21°
1015.7 hPa
31%
16.8°
2
Windvlaag: -0.8 km/h
45%
22:00
20°
1016.5 hPa
71%
17.3°
2
Windvlaag: -0.8 km/h
62%
23:00
20°
1016.9 hPa
70%
17.5°
2
Windvlaag: -0.7 km/h
77%
 04:56     21:00    Daglengte: 16:04 Zaterdag 22 Jun
00:00
19°
1017.0 hPa
62%
17.8°
2
Windvlaag: -0.5 km/h
78%
01:00
19°
1017.4 hPa 1.8 mm
16%
17.9°
3
Windvlaag: -0.3 km/h
78%
02:00
18°
1017.6 hPa 1.1 mm
16%
17.5°
2
Windvlaag: -0.4 km/h
75%
03:00
18°
1017.5 hPa
14%
17.3°
2
Windvlaag: -0.5 km/h
80%
04:00
18°
1017.6 hPa
14%
17.1°
2
Windvlaag: -0.6 km/h
78%
05:00
18°
1017.8 hPa
21%
17.3°
1
Windvlaag: -0.8 km/h
86%
06:00
18°
1018.1 hPa 1.2 mm
24%
17.6°
2
Windvlaag: -0.6 km/h
82%
07:00
19°
1018.4 hPa 1.5 mm
75%
17.8°
2
Windvlaag: -0.7 km/h
89%
08:00
19°
1018.6 hPa 1.3 mm
82%
17.9°
2
Windvlaag: -0.9 km/h
78% warningclass
09:00
20°
1018.4 hPa 1.2 mm
77%
18.1°
2
Windvlaag: -1.2 km/h
80% warningclass
10:00
21°
1018.1 hPa 0.9 mm
22%
18.2°
3
Windvlaag: -2.4 km/h
78% warningclass
11:00
21°
1017.8 hPa 0.9 mm
21%
18.4°
3
Windvlaag: -2.4 km/h
77% warningclass
12:00
22°
1017.5 hPa 0.6 mm
21%
18.5°
2
Windvlaag: -2.5 km/h
80% warningclass
13:00
23°
1017.1 hPa 0.8 mm
21%
18.7°
3
Windvlaag: -3.8 km/h
80% warningclass
14:00
24°
1016.7 hPa 0.7 mm
27%
18.6°
3
Windvlaag: -1.8 km/h
82% warningclass
15:00
23°
1016.4 hPa 0.7 mm
80%
18.9°
3
Windvlaag: -3.6 km/h
83% warningclass
16:00
23°
1016.2 hPa 0.8 mm
87%
19.1°
2
Windvlaag: -2.7 km/h
85% warningclass
17:00
22°
1016.1 hPa 0.8 mm
91%
19.2°
2
Windvlaag: -1.2 km/h
91% warningclass
18:00
22°
1016.2 hPa 1.6 mm
100%
19.1°
2
Windvlaag: -2 km/h
92% warningclass
19:00
21°
1016.2 hPa 5.1 mm
100%
18.7°
2
Windvlaag: -4.8 km/h
93%
20:00
20°
1016.2 hPa 5.4 mm
100%
18.5°
2
Windvlaag: -2 km/h
94%
21:00
20°
1016.2 hPa 5.9 mm
100%
18.3°
1
Windvlaag: -2.1 km/h
90% warningclass
22:00
19°
1016.3 hPa 3.7 mm
100%
18.2°
1
Windvlaag: -1.5 km/h
96% warningclass
23:00
19°
1016.2 hPa 3.8 mm
97%
18.1°
2
Windvlaag: 0.2 km/h
100% warningclass
 04:57     21:00    Daglengte: 16:03 Zondag 23 Jun
00:00
19°
1016.2 hPa 5.8 mm
100%
17.9°
2
Windvlaag: 0.5 km/h
98%
01:00
18°
1016.3 hPa 6.6 mm
100%
17.6°
2
Windvlaag: 0.3 km/h
95%
02:00
18°
1016.2 hPa 6.5 mm
100%
17.2°
2
Windvlaag: -0 km/h
96%
03:00
18°
1016.3 hPa 6.8 mm
100%
17.6°
2
Windvlaag: 0.5 km/h
100%
04:00
18°
1016.3 hPa 7.3 mm
100%
17.4°
2
Windvlaag: 1.8 km/h
94%
05:00
18°
1016.4 hPa 7.1 mm
100%
17.3°
3
Windvlaag: 4.3 km/h
100%
06:00
18°
1016.6 hPa 8.3 mm
100%
17.4°
3
Windvlaag: 7 km/h
98%
07:00
18°
1016.8 hPa 10.0 mm
100%
17.4°
3
Windvlaag: 8.9 km/h
85%
08:00
18°
1016.9 hPa
45%
17.8°
3
Windvlaag: 1.3 km/h
92%
09:00
19°
1016.6 hPa 30.6 mm
100%
17.8°
4
Windvlaag: 7.6 km/h
96%
10:00
20°
1016.8 hPa 30.8 mm
100%
17.9°
4
Windvlaag: 3.5 km/h
89%
11:00
21°
1017.1 hPa 31.1 mm
100%
17.8°
4
Windvlaag: 2 km/h
92%
Temp/Neerslag /Baro Onweer/Dauwpunt
    Temp Baro Neerslag Dauwpunt Wind Bewolking  
 04:56     21:00    Daglengte: 16:04 Vandaag
14:00
30°
1010.5 hPa   16.9°
2
29%
17:00
26°
1010.5 hPa   17.3°
2
39%
20:00
24°
1011.5 hPa 0.2 mm 17.3°
2
76% warningclass
23:00
21°
1012.8 hPa   18.8°
2
33%
 04:56     21:00    Daglengte: 16:04 Morgen
02:00
20°
1013.8 hPa 0.7 mm 17.8°
3
32%
05:00
19°
1014.5 hPa 1.1 mm 17.6°
4
60%
08:00
20°
1015.6 hPa 0.7 mm 16.6°
4
53%
11:00
22°
1015.9 hPa 0.3 mm 16.4°
4
24%
14:00
25°
1014.7 hPa 0.2 mm 16.7°
3
60%
17:00
24°
1014.5 hPa 0.9 mm 14.1°
2
56%
20:00
23°
1015.2 hPa   16.1°
2
52%
23:00
20°
1016.9 hPa   17.5°
2
77%
 04:56     21:00    Daglengte: 16:04 Zaterdag 22 Jun
02:00
18°
1017.6 hPa 2.9 mm 17.5°
2
75%
05:00
18°
1017.8 hPa   17.3°
1
86%
08:00
19°
1018.6 hPa 4.0 mm 17.9°
2
78% warningclass
11:00
21°
1017.8 hPa 3.0 mm 18.4°
3
77% warningclass
14:00
24°
1016.7 hPa 2.1 mm 18.6°
3
82% warningclass
17:00
22°
1016.1 hPa 2.4 mm 19.2°
2
91% warningclass
20:00
20°
1016.2 hPa 12.1 mm 18.5°
2
94%
23:00
19°
1016.2 hPa 13.4 mm 18.1°
2
100% warningclass
 04:57     21:00    Daglengte: 16:03 Zondag 23 Jun
02:00
18°
1016.2 hPa 18.9 mm 17.2°
2
96%
05:00
18°
1016.4 hPa 21.2 mm 17.3°
3
100%
08:00
18°
1016.9 hPa 18.3 mm 17.8°
3
92%
11:00
21°
1017.1 hPa 92.5 mm 17.8°
4
92%
14:00
23°
1017.6 hPa 94.3 mm 17.5°
4
88%
17:00
23°
1018.3 hPa 32.4 mm 16.2°
3
86%
20:00
22°
1018.5 hPa 33.4 mm 15.5°
3
85%
23:00
21°
1019.5 hPa 33.6 mm 13.7°
3
89%
 04:57     21:01    Daglengte: 16:04 Maandag 24 Jun
02:00
20°
1020.4 hPa 33.6 mm 12.2°
4
92%
05:00
20°
1021.2 hPa 33.6 mm 12.2°
3
91%
08:00
20°
1022.1 hPa 33.6 mm 12.4°
3
91%
11:00
23°
1021.8 hPa 33.6 mm 13.9°
4
91%
14:00
26°
1021.5 hPa 33.7 mm 15.4°
5
90%
17:00
25°
1021.7 hPa 34.0 mm 15.9°
4
55%
20:00
24°
1022.1 hPa 34.2 mm 16.4°
3
20%
23:00
21°
1023.0 hPa 34.2 mm 15.0°
2
19%
 04:57     21:01    Daglengte: 16:04 Dinsdag 25 Jun
02:00
18°
1023.9 hPa 34.2 mm 13.5°
2
17%
05:00
19°
1024.4 hPa 34.2 mm 13.3°
2
9%
08:00
20°
1025.0 hPa 34.2 mm 13.1°
2
0%
11:00
24°
1024.6 hPa 34.2 mm 15.3°
2
0%
14:00
27°
1024.2 hPa 34.2 mm 17.2°
2
0%
17:00
27°
1023.7 hPa 34.2 mm 19.7°
2
3%
20:00
26°
1023.2 hPa 34.2 mm 21.7°
1
6%
23:00
23°
1024.2 hPa 34.2 mm 18.9°
1
3%
 04:58     21:01    Daglengte: 16:03 Woensdag 26 Jun
02:00
20°
1024.9 hPa 34.2 mm 16.1°
2
0%
05:00
21°
1025.0 hPa 34.2 mm 16.8°
1
0%
08:00
22°
1025.0 hPa 34.2 mm 17.7°
1
0%
11:00
26°
1024.3 hPa 34.2 mm 18.6°
3
1%
14:00
29°
1023.5 hPa 34.2 mm 18.9°
4
2%
17:00
28°
1022.5 hPa 34.2 mm 18.9°
4
1%
20:00
26°
1021.6 hPa 34.2 mm 18.8°
3
0%
23:00
24°
1021.5 hPa 34.2 mm 17.7°
3
0%
 04:58     21:01    Daglengte: 16:03 Donderdag 27 Jun
02:00
22°
1021.2 hPa 34.2 mm 16.5°
3
1%
05:00
22°
1020.7 hPa 34.2 mm 17.3°
3
2%
08:00
23°
1020.2 hPa 34.2 mm 18.2°
3
4%
11:00
27°
1019.2 hPa   18.8°
2
2%
14:00
31°
1018.3 hPa 68.4 mm 18.5°
2
0%
20:00
28°
1016.3 hPa 68.4 mm 22.1°
2
0%
 04:59     21:00    Daglengte: 16:01 Vrijdag 28 Jun
02:00
22°
1016.6 hPa 68.4 mm 19.4°
2
0%
08:00
26°
1016.0 hPa 68.4 mm 19.2°
3
0%
14:00
35°
1014.0 hPa 68.4 mm 19.6°
5
0%
20:00
31°
1012.4 hPa 68.4 mm 18.3°
4
11%
 04:59     21:00    Daglengte: 16:01 Zaterdag 29 Jun
02:00
24°
1013.1 hPa 68.4 mm 18.4°
2
6%
08:00
23°
1014.6 hPa 68.4 mm 15.9°
5
0%
14:00
32°
1013.2 hPa 68.4 mm 18.9°
3
0%
20:00
26°
1012.6 hPa 69.5 mm 21.9°
3
1%
 05:00     21:00    Daglengte: 16:00 Zondag 30 Jun
02:00
22°
1014.7 hPa 79.8 mm 21.0°
2
1%
08:00
23°
1014.9 hPa 1.2 mm 18.1°
1
30%
14:00
30°
1014.0 hPa 0.3 mm 17.9°
1
29%
20:00
27°
1013.4 hPa 1.0 mm 20.4°
0
34%
 05:00     21:00    Daglengte: 16:00 Maandag 01 Jul
02:00
20°
1014.0 hPa 1.7 mm 17.5°
2
35%
08:00
23°
1013.9 hPa 0.7 mm 18.2°
2
35%
14:00
29°
1012.5 hPa 1.1 mm 17.7°
2
33%
20:00
24°
1012.0 hPa 1.9 mm 19.2°
1
52%
 05:01     21:00    Daglengte: 15:59 Dinsdag 02 Jul
02:00
19°
1012.7 hPa 1.4 mm 16.3°
2
56%
08:00
20°
1012.8 hPa 2.9 mm 16.7°
2
50%
14:00
25°
1012.0 hPa 2.2 mm 16.8°
3
53%
20:00
23°
1011.8 hPa 1.4 mm 17.7°
2
57%
 05:02     20:59    Daglengte: 15:57 Woensdag 03 Jul
02:00
17°
1012.8 hPa 1.0 mm 14.9°
2
60%
08:00
19°
1013.2 hPa 2.2 mm 15.5°
2
57%
14:00
23°
1012.6 hPa 2.3 mm 15.6°
2
56%
20:00
22°
1012.3 hPa 0.7 mm 16.8°
1
59%
 05:02     20:59    Daglengte: 15:57 Donderdag 04 Jul
02:00
16°
1013.1 hPa 1.9 mm 14.2°
1
59%
08:00
18°
1013.9 hPa 1.9 mm 14.8°
3
44%
14:00
24°
1013.5 hPa 0.5 mm 14.6°
2
40%
20:00
21°
1013.4 hPa 1.2 mm 16.3°
1
54%
 05:03     20:59    Daglengte: 15:56 Vrijdag 05 Jul
02:00
16°
1014.7 hPa 0.5 mm 13.6°
2
42%
08:00
19°
1015.4 hPa 0.7 mm 14.6°
2
39%
  CAPE Lifted Index Hail Supercell Tornado SRH 3km CL BTM PRES CL TOP PRES Swiss DWD icon SMHI TS
 04:56     21:00    Daglengte: 16:04 Vandaag
12:00 582 J/kg -2.5 K 0 % 0 % 0 % 0 m²/s² 0 0 0.77 3
13:00 719 J/kg -2.8 K 0 % 0 % 0 % 0 m²/s² 0 0 0.83 2
14:00 849 J/kg -3.3 K 0 % 0 % 0 % 0 m²/s² 0 0 0.33 3
15:00 717 J/kg -2.8 K 0 % 0 % 0 % 0 m²/s² 0 0 0.95 1
16:00 660 J/kg -2.4 K 0 % 0 % 0 % 0 m²/s² 0 0 0.96 3
17:00 1419 J/kg -5.4 K 0 % 0 % 0 % 0 m²/s² 0 0 -1.65 80
18:00 1803 J/kg -6.7 K 0 % 0 % 0 % 0 m²/s² 0 0 -3.76 3
19:00 599 J/kg -4.5 K 0 % 0 % 0 % 0 m²/s² 0 0 -2.25 3
20:00 0 J/kg -1.9 K 0 % 0 % 0 % 0 m²/s² 0 0 -0.1 95
21:00 0 J/kg -1.3 K 0 % 0 % 0 % 0 m²/s² 0 0 -0.19 3
22:00 0 J/kg -0.6 K 0 % 0 % 0 % 0 m²/s² 0 0 -0.39 3
23:00 0 J/kg 0.3 K 0 % 0 % 0 % 0 m²/s² 0 0 0.48 80
 04:56     21:00    Daglengte: 16:04 Morgen
00:00 0 J/kg 1.7 K 0 % 0 % 0 % 0 m²/s² 0 0 2.66 80
01:00 0 J/kg 0.8 K 0 % 0 % 0 % 0 m²/s² 0 0 2.18 3
02:00 0 J/kg 1.1 K 0 % 0 % 0 % 0 m²/s² 0 0 1.76 3
03:00 0 J/kg 1.0 K 0 % 0 % 0 % 0 m²/s² 0 0 1.87 3
04:00 0 J/kg 0.6 K 0 % 0 % 0 % 0 m²/s² 0 0 2.16 80
05:00 0 J/kg 0.1 K 0 % 0 % 0 % 0 m²/s² 0 0 2.02 3
06:00 0 J/kg -0.1 K 0 % 0 % 0 % 0 m²/s² 0 0 2.15 3
07:00 0 J/kg 0.6 K 0 % 0 % 0 % 0 m²/s² 0 0 3 80
08:00 0 J/kg 0.8 K 0 % 0 % 0 % 0 m²/s² 0 0 3.2 3
09:00 20 J/kg -0.1 K 0 % 0 % 0 % 0 m²/s² 0 0 2.6 80
10:00 251 J/kg -1.2 K 0 % 0 % 0 % 0 m²/s² 0 0 1.65 2
11:00 441 J/kg -1.7 K 0 % 0 % 0 % 0 m²/s² 0 0 1.15 2
12:00 599 J/kg -2.0 K 0 % 0 % 0 % 0 m²/s² 0 0 0.85 2
13:00 771 J/kg -2.4 K 0 % 0 % 0 % 0 m²/s² 0 0 0.36 3
14:00 961 J/kg -2.9 K 0 % 0 % 0 % 0 m²/s² 0 0 -0.2 3
15:00 903 J/kg -2.7 K 0 % 0 % 0 % 0 m²/s² 0 0 0.42 3
16:00 746 J/kg -2.0 K 0 % 0 % 0 % 0 m²/s² 0 0 1.03 80
17:00 632 J/kg -2.1 K 0 % 0 % 0 % 0 m²/s² 0 0 0.84 80
18:00 469 J/kg -1.7 K 0 % 0 % 0 % 0 m²/s² 0 0 0.85 3
19:00 316 J/kg -1.2 K 0 % 0 % 0 % 0 m²/s² 0 0 1.05 80
20:00 376 J/kg -1.3 K 0 % 0 % 0 % 0 m²/s² 0 0 1.1 3
21:00 409 J/kg -2.9 K 0 % 0 % 0 % 0 m²/s² 0 0 -0.5 3
22:00 0 J/kg -2.6 K 0 % 0 % 0 % 0 m²/s² 0 0 -0.89 3
23:00 0 J/kg -2.2 K 0 % 0 % 0 % 0 m²/s² 0 0 -0.88 3
 04:56     21:00    Daglengte: 16:04 Zaterdag 22 Jun
00:00 0 J/kg -2.6 K 0 % 0 % 0 % 0 m²/s² 0 0 -1.64 3
01:00 20 J/kg -2.8 K 0 % 0 % 0 % 0 m²/s² 0 0 -2.68 3
02:00 0 J/kg -2.0 K 0 % 0 % 0 % 0 m²/s² 0 0 -1.82 3
03:00 44 J/kg -2.2 K 0 % 0 % 0 % 0 m²/s² 0 0 -2.08 3
04:00 140 J/kg -3.0 K 0 % 0 % 0 % 0 m²/s² 0 0 -2.91 3
05:00 72 J/kg -3.1 K 0 % 0 % 0 % 0 m²/s² 0 0 -2.74 3
06:00 142 J/kg -3.0 K 0 % 0 % 0 % 0 m²/s² 0 0 -2.52 45
07:00 488 J/kg -2.3 K 0 % 0 % 0 % 0 m²/s² 0 0 -1.76 3
08:00 841 J/kg -3.0 K 0 % 0 % 0 % 0 m²/s² 0 0 -2.43 3
09:00 1030 J/kg -3.6 K 0 % 0 % 0 % 0 m²/s² 0 0 -3.15 3
10:00 1098 J/kg -4.0 K 0 % 0 % 0 % 0 m²/s² 0 0 -3.37 3
11:00 1339 J/kg -4.6 K 0 % 0 % 0 % 0 m²/s² 0 0 -3.49 3
12:00 1552 J/kg -5.2 K 0 % 0 % 0 % 0 m²/s² 0 0 -4.03 3
13:00 1878 J/kg -5.9 K 0 % 0 % 0 % 0 m²/s² 0 0 -4.52 2
14:00 2202 J/kg -6.5 K 0 % 0 % 0 % 0 m²/s² 0 0 -5.18 0
15:00 2272 J/kg -6.7 K 0 % 0 % 0 % 0 m²/s² 0 0 -5.8 2
16:00 1915 J/kg -5.5 K 0 % 0 % 0 % 0 m²/s² 0 0 -3.64 3
17:00 1536 J/kg -5.4 K 0 % 0 % 0 % 0 m²/s² 0 0 -4.23 3
18:00 975 J/kg -3.4 K 0 % 0 % 0 % 0 m²/s² 0 0 -3.28 3
19:00 3 J/kg 1.8 K 0 % 0 % 0 % 0 m²/s² 0 0 2.16 3
20:00 0 J/kg 1.1 K 0 % 0 % 0 % 0 m²/s² 0 0 1.13 80
21:00 0 J/kg 2.0 K 0 % 0 % 0 % 0 m²/s² 0 0 2.18 95
22:00 110 J/kg -1.2 K 0 % 0 % 0 % 0 m²/s² 0 0 -0.99 95
23:00 4 J/kg 0.0 K 0 % 0 % 0 % 0 m²/s² 0 0 1.38 95
 04:57     21:00    Daglengte: 16:03 Zondag 23 Jun
00:00 33 J/kg 0.3 K 0 % 0 % 0 % 0 m²/s² 0 0 1.41 80
01:00 35 J/kg -0.2 K 0 % 0 % 0 % 0 m²/s² 0 0 0.85 80
02:00 5 J/kg 0.0 K 0 % 0 % 0 % 0 m²/s² 0 0 1.26 80
03:00 73 J/kg 0.7 K 0 % 0 % 0 % 0 m²/s² 0 0 1.6 80
04:00 32 J/kg 1.4 K 0 % 0 % 0 % 0 m²/s² 0 0 2.21 80
05:00 0 J/kg 1.2 K 0 % 0 % 0 % 0 m²/s² 0 0 1.98 80
06:00 2 J/kg 1.1 K 0 % 0 % 0 % 0 m²/s² 0 0 1.1 80
07:00 0 J/kg 1.3 K 0 % 0 % 0 % 0 m²/s² 0 0 1.3 80
08:00 0 J/kg 1.2 K 0 % 0 % 0 % 0 m²/s² 0 0 1.2 3
09:00 5 J/kg 2.5 K 0 % 0 % 0 % 0 m²/s² 0 0 2.5
10:00 121 J/kg 1.9 K 0 % 0 % 0 % 0 m²/s² 0 0 2.26
11:00 203 J/kg 0.7 K 0 % 0 % 0 % 0 m²/s² 0 0 1.51
Temp Baro Wind Neerslag
  EWN Forecast EWN WRFDA DWD ICON FMI HIRLAM MET Norway GFS
 04:56     21:00    Daglengte: 16:04 Vandaag
14:00 29.8° 1010.5 hPa 2.3 m/s 0.0 mm 28.1° 1011.3 hPa 1.5 m/s 0.0 mm 30.3° 1010.4 hPa 2.4 m/s -2.0 mm 30.6° 1010.1 hPa 2.2 m/s 0.0 mm 28.7° 1010.5 hPa 2.8 m/s 0.0 mm 28.6° 1011.5 hPa 1.4 m/s
17:00 25.8° 1010.5 hPa 2.0 m/s 0.0 mm 26.6° 1010.2 hPa 6.3 m/s 0.0 mm 24.6° 1010.5 hPa 1.7 m/s 0.6 mm 31.2° 1009.4 hPa 1.9 m/s 0.0 mm 24.8° 1011.6 hPa 1.9 m/s 1.7 mm 29.0° 1010.7 hPa 1.4 m/s
20:00 24.5° 1011.5 hPa 2.3 m/s 0.2 mm 18.5° 1012.3 hPa 4.5 m/s 0.5 mm 20.5° 1012.9 hPa 4.6 m/s 4.5 mm 27.4° 1009.6 hPa 3.2 m/s 0.0 mm 25.1° 1011.6 hPa 1.0 m/s 0.0 mm 19.2° 1012.4 hPa 4.7 m/s
23:00 20.9° 1012.8 hPa 1.9 m/s 0.0 mm 17.3° 1013.8 hPa 4.0 m/s 1.0 mm 19.3° 1013.6 hPa 3.7 m/s 0.5 mm 21.9° 1011.0 hPa 1.9 m/s 0.0 mm 21.2° 1013.0 hPa 1.2 m/s 0.0 mm 17.2° 1013.9 hPa 3.0 m/s
 04:56     21:00    Daglengte: 16:04 Morgen
02:00 20.1° 1013.8 hPa 3.2 m/s 0.7 mm 16.5° 1014.2 hPa 3.7 m/s 1.0 mm 19.0° 1014.1 hPa 3.3 m/s 1.1 mm 20.3° 1011.9 hPa 2.8 m/s 0.0 mm 20.5° 1014.1 hPa 3.6 m/s 1.4 mm 17.3° 1015.3 hPa 3.0 m/s
05:00 18.8° 1014.5 hPa 3.7 m/s 1.1 mm 15.3° 1014.3 hPa 4.5 m/s 1.0 mm 18.3° 1015.0 hPa 3.9 m/s 1.2 mm 19.7° 1012.5 hPa 3.0 m/s 0.0 mm 19.0° 1015.2 hPa 3.6 m/s 0.0 mm 17.3° 1015.3 hPa 3.3 m/s
08:00 20.1° 1015.6 hPa 4.1 m/s 0.7 mm 19.6° 1015.3 hPa 4.9 m/s 1.0 mm 19.4° 1016.1 hPa 3.6 m/s 0.5 mm 22.1° 1013.7 hPa 5.1 m/s 0.0 mm 20.4° 1016.6 hPa 3.5 m/s 0.0 mm 19.4° 1016.2 hPa 3.8 m/s
11:00 22.3° 1015.9 hPa 4.1 m/s 0.3 mm 23.7° 1015.3 hPa 3.4 m/s 1.0 mm 22.2° 1016.4 hPa 4.1 m/s 0.3 mm 21.5° 1014.4 hPa 6.5 m/s 0.0 mm 23.4° 1016.5 hPa 2.6 m/s 0.5 mm 23.0° 1016.1 hPa 3.5 m/s
14:00 24.8° 1014.7 hPa 3.2 m/s 0.2 mm 26.2° 1014.6 hPa 2.7 m/s 1.0 mm 25.5° 1015.6 hPa 3.3 m/s 0.0 mm 18.7° 1014.6 hPa 6.2 m/s 0.0 mm 26.5° 1014.5 hPa 0.3 m/s 0.0 mm 26.2° 1015.2 hPa 3.1 m/s
17:00 24.0° 1014.5 hPa 2.2 m/s 0.9 mm 27.6° 1013.7 hPa 1.9 m/s 1.0 mm 22.8° 1015.3 hPa 1.9 m/s 1.6 mm 21.7° 1014.4 hPa 3.6 m/s 0.0 mm 26.8° 1014.2 hPa 1.4 m/s 0.0 mm 26.6° 1014.9 hPa 2.4 m/s
20:00 23.2° 1015.2 hPa 2.2 m/s 0.0 mm 25.1° 1013.6 hPa 1.5 m/s 1.0 mm 21.7° 1016.2 hPa 2.0 m/s 0.2 mm 23.0° 1014.7 hPa 2.2 m/s 0.0 mm 24.9° 1015.1 hPa 2.0 m/s 0.0 mm 22.7° 1015.1 hPa 2.1 m/s
23:00 19.7° 1016.9 hPa 1.9 m/s 0.0 mm 18.9° 1016.9 hPa 3.3 m/s 1.5 mm 19.3° 1017.6 hPa 2.1 m/s 0.3 mm 18.8° 1016.1 hPa 1.5 m/s 0.0 mm 21.5° 1016.6 hPa 0.7 m/s 0.0 mm 18.8° 1017.0 hPa 1.7 m/s
 04:56     21:00    Daglengte: 16:04 Zaterdag 22 Jun
02:00 18.1° 1017.6 hPa 2.0 m/s 2.9 mm 18.0° 1016.5 hPa 2.2 m/s 2.4 mm 18.1° 1018.3 hPa 1.6 m/s 0.3 mm 16.7° 1015.7 hPa 1.6 m/s 0.0 mm 18.6° 1017.8 hPa 1.9 m/s 5.4 mm 17.3° 1017.0 hPa 1.4 m/s
05:00 17.6° 1017.8 hPa 1.5 m/s 0.0 mm 16.7° 1016.3 hPa 2.0 m/s 2.5 mm 16.6° 1018.8 hPa 1.2 m/s 0.0 mm 18.4° 1017.7 hPa 1.1 m/s 0.0 mm 16.6° 1016.9 hPa 1.4 m/s
08:00 19.3° 1018.6 hPa 1.6 m/s 4.0 mm 20.7° 1017.2 hPa 1.8 m/s 3.0 mm 19.4° 1019.7 hPa 0.4 m/s 0.1 mm 19.4° 1018.6 hPa 1.5 m/s 2.4 mm 18.8° 1017.5 hPa 1.3 m/s
11:00 21.5° 1017.8 hPa 2.5 m/s 3.0 mm 22.9° 1017.1 hPa 4.8 m/s 3.2 mm 23.4° 1019.3 hPa 3.8 m/s 0.0 mm 21.6° 1017.5 hPa 1.2 m/s 22.3° 1016.6 hPa 3.6 m/s
14:00 23.6° 1016.7 hPa 2.8 m/s 2.1 mm 25.4° 1015.6 hPa 3.6 m/s 4.1 mm 26.3° 1017.6 hPa 4.3 m/s 0.0 mm 23.8° 1016.5 hPa 1.0 m/s 25.0° 1015.1 hPa 5.5 m/s
17:00 22.4° 1016.1 hPa 1.9 m/s 2.4 mm 22.3° 1014.1 hPa 5.8 m/s 6.1 mm 26.5° 1015.7 hPa 3.7 m/s 0.1 mm 22.1° 1016.3 hPa 0.8 m/s 23.8° 1013.9 hPa 4.8 m/s
20:00 20.2° 1016.2 hPa 1.7 m/s 12.1 mm 17.6° 1015.4 hPa 5.2 m/s 34.1 mm 22.0° 1016.9 hPa 1.5 m/s 1.1 mm 20.4° 1016.1 hPa 0.5 m/s 20.9° 1014.2 hPa 4.3 m/s
23:00 19.1° 1016.2 hPa 1.6 m/s 13.4 mm 18.4° 1014.3 hPa 2.4 m/s 47.1 mm 19.4° 1017.2 hPa 1.3 m/s 3.3 mm 19.4° 1016.2 hPa 1.6 m/s 18.6° 1014.9 hPa 3.2 m/s
 04:57     21:00    Daglengte: 16:03 Zondag 23 Jun
02:00 17.6° 1016.2 hPa 2.1 m/s 18.9 mm 17.1° 1013.2 hPa 1.2 m/s 54.8 mm 17.6° 1017.6 hPa 1.7 m/s 1.0 mm 18.4° 1016.3 hPa 2.6 m/s 17.5° 1015.1 hPa 1.9 m/s
05:00 17.7° 1016.4 hPa 2.7 m/s 21.2 mm 16.9° 1012.2 hPa 2.8 m/s 57.9 mm 17.0° 1018.1 hPa 1.3 m/s 2.8 mm 18.4° 1016.6 hPa 3.1 m/s 17.2° 1015.6 hPa 2.2 m/s
08:00 18.4° 1016.9 hPa 3.5 m/s 18.3 mm 18.0° 1012.6 hPa 5.5 m/s 81.9 mm 18.3° 1019.5 hPa 1.4 m/s 1.5 mm 18.5° 1017.0 hPa 3.6 m/s 17.4° 1016.7 hPa 2.7 m/s
11:00 20.6° 1017.1 hPa 3.7 m/s 92.5 mm 21.2° 1014.5 hPa 0.9 m/s 92.5 mm 20.5° 1017.5 hPa 4.2 m/s 18.3° 1018.0 hPa 2.2 m/s
14:00 22.8° 1017.6 hPa 4.3 m/s 94.3 mm 24.7° 1015.1 hPa 1.7 m/s 94.3 mm 22.5° 1018.0 hPa 4.7 m/s 20.7° 1018.2 hPa 3.2 m/s
17:00 22.5° 1018.3 hPa 3.4 m/s 32.4 mm 22.6° 1018.3 hPa 3.5 m/s 21.1° 1018.2 hPa 2.8 m/s 32.4 mm
20:00 22.5° 1018.5 hPa 2.8 m/s 33.4 mm 22.7° 1018.4 hPa 2.9 m/s 19.8° 1019.7 hPa 2.3 m/s 33.4 mm
23:00 21.1° 1019.5 hPa 3.3 m/s 33.6 mm 21.5° 1019.3 hPa 3.3 m/s 16.5° 1021.6 hPa 2.4 m/s 33.6 mm
 04:57     21:01    Daglengte: 16:04 Maandag 24 Jun
02:00 20.0° 1020.4 hPa 3.7 m/s 33.6 mm 20.4° 1020.2 hPa 3.8 m/s 15.8° 1022.0 hPa 2.5 m/s 33.6 mm
05:00 19.6° 1021.2 hPa 3.1 m/s 33.6 mm 20.0° 1021.2 hPa 3.1 m/s 15.1° 1021.7 hPa 3.0 m/s 33.6 mm
08:00 19.5° 1022.1 hPa 2.6 m/s 33.6 mm 19.6° 1022.1 hPa 2.5 m/s 18.5° 1022.7 hPa 3.3 m/s 33.6 mm
11:00 22.7° 1021.8 hPa 3.7 m/s 33.6 mm 22.7° 1021.8 hPa 3.8 m/s 22.1° 1022.9 hPa 3.6 m/s 33.6 mm
14:00 25.7° 1021.5 hPa 4.9 m/s 33.7 mm 25.8° 1021.4 hPa 5.0 m/s 24.3° 1022.2 hPa 3.5 m/s 33.7 mm
17:00 24.8° 1021.7 hPa 3.8 m/s 34.0 mm 24.8° 1021.7 hPa 3.8 m/s 25.2° 1021.9 hPa 4.0 m/s 34.0 mm
20:00 23.7° 1022.1 hPa 2.6 m/s 34.2 mm 23.8° 1022.0 hPa 2.6 m/s 22.3° 1022.6 hPa 2.4 m/s 34.2 mm
23:00 20.7° 1023.0 hPa 2.5 m/s 34.2 mm 20.9° 1022.9 hPa 2.5 m/s 18.7° 1024.7 hPa 1.5 m/s 34.2 mm
 04:57     21:01    Daglengte: 16:04 Dinsdag 25 Jun
02:00 17.8° 1023.9 hPa 2.4 m/s 34.2 mm 17.9° 1023.8 hPa 2.5 m/s 17.1° 1024.8 hPa 1.8 m/s 34.2 mm
05:00 18.8° 1024.4 hPa 2.0 m/s 34.2 mm 19.0° 1024.4 hPa 2.0 m/s 16.1° 1024.5 hPa 1.7 m/s 34.2 mm
08:00 20.1° 1025.0 hPa 1.6 m/s 34.2 mm 20.1° 1025.0 hPa 1.5 m/s 19.8° 1025.1 hPa 2.2 m/s 34.2 mm
11:00 23.8° 1024.6 hPa 1.8 m/s 34.2 mm 23.8° 1024.6 hPa 1.6 m/s 24.9° 1024.9 hPa 3.8 m/s 34.2 mm
14:00 27.4° 1024.2 hPa 2.0 m/s 34.2 mm 27.4° 1024.2 hPa 1.8 m/s 26.9° 1024.4 hPa 4.2 m/s 34.2 mm
17:00 26.9° 1023.7 hPa 1.6 m/s 34.2 mm 26.9° 1023.7 hPa 1.4 m/s 26.9° 1023.8 hPa 3.9 m/s 34.2 mm
20:00 26.0° 1023.2 hPa 1.1 m/s 34.2 mm 26.3° 1023.1 hPa 1.0 m/s 23.2° 1024.7 hPa 2.2 m/s 34.2 mm
23:00 22.8° 1024.2 hPa 1.4 m/s 34.2 mm 23.2° 1024.0 hPa 1.4 m/s 18.4° 1026.6 hPa 0.9 m/s 34.2 mm
 04:58     21:01    Daglengte: 16:03 Woensdag 26 Jun
02:00 19.8° 1024.9 hPa 1.8 m/s 34.2 mm 20.1° 1024.8 hPa 1.8 m/s 16.7° 1026.5 hPa 1.6 m/s 34.2 mm
05:00 20.9° 1025.0 hPa 1.4 m/s 34.2 mm 21.4° 1024.8 hPa 1.4 m/s 15.6° 1026.3 hPa 1.9 m/s 34.2 mm
08:00 22.4° 1025.0 hPa 1.1 m/s 34.2 mm 22.6° 1024.9 hPa 1.0 m/s 20.3° 1026.2 hPa 2.0 m/s 34.2 mm
11:00 26.0° 1024.3 hPa 2.6 m/s 34.2 mm 26.1° 1024.2 hPa 2.6 m/s 25.2° 1025.7 hPa 3.0 m/s 34.2 mm
14:00 29.4° 1023.5 hPa 4.1 m/s 34.2 mm 29.6° 1023.4 hPa 4.2 m/s 27.6° 1024.8 hPa 3.6 m/s 34.2 mm
17:00 28.1° 1022.5 hPa 3.8 m/s 34.2 mm 28.2° 1022.5 hPa 3.8 m/s 27.1° 1023.3 hPa 3.2 m/s 34.2 mm
20:00 26.5° 1021.6 hPa 3.3 m/s 34.2 mm 26.8° 1021.5 hPa 3.4 m/s 23.2° 1023.2 hPa 1.7 m/s 34.2 mm
23:00 24.1° 1021.5 hPa 2.8 m/s 34.2 mm 24.6° 1021.2 hPa 3.0 m/s 19.0° 1024.1 hPa 0.5 m/s 34.2 mm
 04:58     21:01    Daglengte: 16:03 Donderdag 27 Jun
02:00 21.9° 1021.2 hPa 2.6 m/s 34.2 mm 22.3° 1021.0 hPa 2.7 m/s 17.5° 1024.0 hPa 1.1 m/s 34.2 mm
05:00 22.4° 1020.7 hPa 2.6 m/s 34.2 mm 23.0° 1020.5 hPa 2.8 m/s 15.9° 1023.3 hPa 1.1 m/s 34.2 mm
08:00 23.3° 1020.2 hPa 2.7 m/s 34.2 mm 23.6° 1019.9 hPa 2.8 m/s 19.9° 1023.2 hPa 1.3 m/s 34.2 mm
11:00 27.1° 1019.2 hPa 2.4 m/s 34.2 mm 27.3° 1019.0 hPa 2.5 m/s 25.0° 1022.5 hPa 1.7 m/s 34.2 mm
14:00 30.8° 1018.3 hPa 2.1 m/s 34.2 mm 31.0° 1018.0 hPa 2.1 m/s 28.2° 1021.2 hPa 2.5 m/s 34.2 mm
20:00 28.2° 1016.3 hPa 1.5 m/s 34.2 mm 28.6° 1016.0 hPa 1.5 m/s 24.2° 1019.8 hPa 1.9 m/s 34.2 mm
 04:59     21:00    Daglengte: 16:01 Vrijdag 28 Jun
02:00 22.3° 1016.6 hPa 1.6 m/s 34.2 mm 22.6° 1016.3 hPa 1.7 m/s 18.7° 1020.2 hPa 0.4 m/s 34.2 mm
08:00 26.3° 1016.0 hPa 3.4 m/s 34.2 mm 26.7° 1015.8 hPa 3.6 m/s 22.3° 1018.8 hPa 1.3 m/s 34.2 mm
14:00 34.8° 1014.0 hPa 4.8 m/s 34.2 mm 35.2° 1013.8 hPa 4.8 m/s 30.4° 1016.5 hPa 4.9 m/s 34.2 mm
20:00 31.4° 1012.4 hPa 3.5 m/s 34.2 mm 31.9° 1012.1 hPa 3.4 m/s 25.5° 1015.4 hPa 4.9 m/s 34.2 mm
 04:59     21:00    Daglengte: 16:01 Zaterdag 29 Jun
02:00 23.6° 1013.1 hPa 2.1 m/s 34.2 mm 23.8° 1012.9 hPa 1.9 m/s 21.8° 1015.8 hPa 4.7 m/s 34.2 mm
08:00 23.0° 1014.6 hPa 4.7 m/s 34.2 mm 23.0° 1014.6 hPa 4.7 m/s 34.2 mm
14:00 31.6° 1013.2 hPa 2.8 m/s 34.2 mm 31.6° 1013.2 hPa 2.8 m/s 34.2 mm
20:00 26.2° 1012.6 hPa 2.9 m/s 35.2 mm 26.2° 1012.6 hPa 2.9 m/s 35.2 mm
 05:00     21:00    Daglengte: 16:00 Zondag 30 Jun
02:00 21.8° 1014.7 hPa 1.7 m/s 42.4 mm 21.8° 1014.7 hPa 1.7 m/s 42.4 mm
08:00 23.2° 1014.9 hPa 1.2 m/s 1.2 mm
14:00 30.5° 1014.0 hPa 0.9 m/s 0.3 mm
20:00 26.6° 1013.4 hPa 0.5 m/s 1.0 mm
 05:00     21:00    Daglengte: 16:00 Maandag 01 Jul
02:00 20.1° 1014.0 hPa 1.5 m/s 1.7 mm
08:00 22.6° 1013.9 hPa 1.7 m/s 0.7 mm
14:00 28.7° 1012.5 hPa 1.9 m/s 1.1 mm
20:00 24.5° 1012.0 hPa 1.3 m/s 1.9 mm
 05:01     21:00    Daglengte: 15:59 Dinsdag 02 Jul
02:00 18.5° 1012.7 hPa 1.8 m/s 1.4 mm
08:00 20.0° 1012.8 hPa 2.3 m/s 2.9 mm
14:00 24.7° 1012.0 hPa 2.9 m/s 2.2 mm
20:00 22.5° 1011.8 hPa 1.6 m/s 1.4 mm
 05:02     20:59    Daglengte: 15:57 Woensdag 03 Jul
02:00 16.9° 1012.8 hPa 1.9 m/s 1.0 mm
08:00 18.7° 1013.2 hPa 2.3 m/s 2.2 mm
14:00 23.5° 1012.6 hPa 1.7 m/s 2.3 mm
20:00 21.6° 1012.3 hPa 1.1 m/s 0.7 mm
 05:02     20:59    Daglengte: 15:57 Donderdag 04 Jul
02:00 16.2° 1013.1 hPa 1.1 m/s 1.9 mm
08:00 18.3° 1013.9 hPa 2.9 m/s 1.9 mm
14:00 23.9° 1013.5 hPa 2.4 m/s 0.5 mm
20:00 21.5° 1013.4 hPa 1.3 m/s 1.2 mm
 05:03     20:59    Daglengte: 15:56 Vrijdag 05 Jul
02:00 16.0° 1014.7 hPa 1.7 m/s 0.5 mm
08:00 18.7° 1015.4 hPa 2.5 m/s 0.7 mm